[[{"header":{"parameterUnit":"m.s-1","parameterCategory":1,"la1":30.2991,"la2":30.254,"lo1":-89.0895,"lo2":-89.0444,"dy":0.0017,"dx":0.0017,"nx":28,"ny":28,"refTime":"2023-09-28T09:00:00:Z","depth":0,"parameterNumber":2,"parameterNumberName":"U-component_of_WINDS"},"data":[0,0,0,0,0,0,0,0,0,0,0,0,0,0,0,0,0,0,0,0,0,0,0,0,0,0,0,0,0,0,0,0,0,0,0,0,0,0,0,0,0,0,0,0,0,0,0,0,0,0,0,0,0,0,0,0,0,0,-2.8266,-2.8266,0,-2.8286,-2.8286,-2.8286,-2.8185,-2.8182,-2.8179,-2.8176,-2.8198,-2.8202,-2.8205,0,0,0,0,0,0,0,0,0,0,0,0,0,-2.8142,-2.8145,-2.8266,-2.8266,-2.8266,-2.8286,-2.8286,-2.8286,-2.8185,-2.8182,-2.8178,-2.8175,-2.8197,-2.8201,-2.8205,0,0,0,0,0,0,0,0,0,0,0,0,0,-2.8182,-2.8145,-2.8265,-2.8218,-2.8214,-2.8286,-2.8286,-2.8286,-2.8186,-2.8182,-2.8177,-2.8173,-2.8196,-2.8201,-2.8206,-2.8325,0,0,-2.8221,-2.8223,0,0,0,0,0,0,0,0,-2.818,-2.8187,-2.8225,-2.8221,-2.8217,-2.8228,-2.825,-2.8299,-2.8187,-2.8197,-2.8176,-2.8171,-2.8212,-2.8215,-2.8229,-2.8326,-2.8327,-2.8222,-2.8225,-2.8227,-2.8228,0,0,0,0,0,0,0,-2.8177,-2.8185,-2.8273,-2.8225,-2.8221,-2.8196,-2.8197,-2.8259,-2.8229,-2.8195,-2.8188,-2.8192,-2.8209,-2.8224,-2.8229,-2.8327,-2.8221,-2.8226,-2.8229,-2.8231,-2.8524,-2.8528,0,0,0,0,0,0,-2.8181,-2.8184,-2.8273,-2.8274,-2.8187,-2.8202,-2.8203,-2.8229,-2.8228,-2.8223,-2.8196,-2.8187,-2.8218,-2.8223,-2.8229,-2.8368,-2.8227,-2.8231,-2.8234,-2.8519,-2.8525,-2.853,0,0,0,0,0,0,-2.8178,-2.819,-2.8272,-2.8227,-2.8236,-2.8209,-2.8239,-2.8232,-2.8247,-2.8228,-2.8222,-2.8217,-2.8215,-2.8222,-2.8302,-2.8368,-2.8234,-2.8238,-2.8513,-2.8521,-2.8527,-2.8648,0,0,0,0,0,0,-2.8175,-2.8189,-2.8234,-2.8229,-2.8238,-2.8344,-2.8243,-2.8235,-2.8256,-2.8245,-2.8246,-2.8242,-2.8212,-2.8295,-2.8307,-2.8372,-2.8242,-2.8507,-2.8517,-2.8525,-2.8638,-2.8659,-2.8676,0,0,0,0,0,-2.8171,-2.8267,-2.8236,-2.8248,-2.8293,-2.8348,-2.8354,-2.8316,-2.8261,-2.8306,-2.8294,-2.8242,-2.8359,-2.8304,-2.8316,-2.8385,-2.8503,-2.8514,-2.8524,-2.863,-2.8655,-2.8676,0,0,0,0,0,0,-2.8281,-2.8265,-2.8231,-2.8328,-2.834,-2.8331,-2.8386,-2.8344,-2.8372,-2.836,-2.8313,-2.8315,-2.8403,-2.8402,-2.8341,-2.85,-2.8421,-2.8435,-2.8497,-2.8521,-2.854,-2.8538,-2.8246,0,0,0,0,0,-2.8316,-2.8361,-2.8346,-2.8433,-2.8441,-2.8413,-2.8435,-2.8406,-2.8416,-2.8421,-2.8414,-2.8427,-2.8467,-2.8494,-2.8529,-2.8638,-2.8637,-2.8691,-2.871,-2.8726,-2.8738,-2.8796,-2.882,-2.8565,-2.8565,-2.8565,0,0,-2.839,-2.8387,-2.8418,-2.8455,-2.8461,-2.8509,-2.8418,-2.8473,-2.8508,-2.8429,-2.8504,-2.85,-2.8512,-2.8607,-2.8648,-2.8608,-2.8809,-2.874,-2.8752,-2.8756,-2.881,-2.8834,-2.8855,-2.8572,-2.8571,-2.857,0,0,-2.8549,-2.8551,-2.8624,-2.8632,-2.8642,-2.8622,-2.864,-2.8638,-2.8632,-2.8706,-2.8648,-2.8691,-2.876,-2.877,-2.8785,-2.895,-2.8903,-2.8963,-2.9061,-2.9119,-2.9139,-2.9156,-2.9215,-2.9237,-2.8975,-2.8975,-2.8976,0,-2.8639,-2.8709,-2.8667,-2.8726,-2.8744,-2.8675,-2.8749,-2.8759,-2.8781,-2.8795,-2.875,-2.8836,-2.8839,-2.8935,-2.8976,-2.899,-2.9009,-2.8962,-2.9139,-2.9156,-2.9172,-2.9228,-2.925,-2.8982,-2.8982,-2.8981,-2.898,0,-2.882,-2.887,-2.8928,-2.8949,-2.8974,-2.9041,-2.901,-2.904,-2.9009,-2.8995,-2.9072,-2.9074,-2.9108,-2.9129,-2.9099,-2.9222,-2.9197,-2.9147,-2.9067,-2.9204,-2.9256,-2.9277,-2.8993,-2.899,-2.8988,-2.8986,0,0,-2.9047,-2.9045,-2.9068,-2.9077,-2.9083,-2.9121,-2.9186,-2.9219,-2.9246,-2.9264,-2.9317,-2.9377,-2.9331,-2.9347,-2.9318,-2.9369,-2.95,-2.9312,-2.9311,-2.9347,-2.9636,-2.9674,-2.9699,-2.9469,-2.9473,-2.9476,-2.9635,0,-2.9202,-2.931,-2.9275,-2.9385,-2.9431,-2.9367,-2.9423,-2.9433,-2.9423,-2.9461,-2.9449,-2.9492,-2.9428,-2.9437,-2.9484,-2.9474,-2.9557,-2.9462,-2.9519,-2.9521,-2.9517,-2.9726,-2.9766,-2.9915,-2.9655,-2.9658,-2.9661,0,-2.9397,-2.9423,-2.9537,-2.9536,-2.9554,-2.9605,-2.9633,-2.9671,-2.9682,-2.967,-2.969,-2.9651,-2.9714,-2.9635,-2.9723,-2.9659,-2.968,-2.9679,-2.9684,-2.9687,-2.9599,-2.9735,-2.9962,-2.9985,-2.9692,-2.969,-2.9687,0,-2.9552,-2.9614,-2.9691,-2.9701,-2.9702,-2.974,-2.9742,-2.9749,-2.9772,-2.9797,-2.9811,-2.9844,-2.9862,-2.9889,-2.986,-2.9805,-2.9953,-2.987,-2.9945,-2.9946,-2.9979,-2.9977,-3.0212,-2.9993,-2.9993,-2.9993,-2.9992,0,-2.9729,-2.9801,-2.976,-2.9807,-2.9887,-2.9847,-2.9928,-2.9923,-2.993,-2.9976,-2.9922,-2.9967,-2.9926,-2.9967,-2.9945,-3.0021,-3.003,-3.0023,-3.0016,-3.0028,-3.0029,-3.0041,-3.0029,-2.9999,-2.9997,-2.9996,-2.9995,0,-2.9914,-2.9889,-2.9969,-2.9964,-2.9964,-3.0023,-3.0019,-3.0063,-3.0049,-3.0108,-3.0119,-3.0097,-3.0143,-3.0117,-3.0164,-3.0149,-3.0248,-3.0228,-3.0245,-3.0239,-3.0315,-3.0308,-3.0566,-3.0598,-3.0359,-3.0361,-3.0363,0,-3.0028,-3.0082,-3.0083,-3.011,-3.0116,-3.0159,-3.0182,-3.0145,-3.0172,-3.0189,-3.0232,-3.0273,-3.0303,-3.038,-3.0368,-3.0404,-3.0384,-3.0472,-3.0389,-3.0399,-3.0385,-3.0382,-3.0388,-3.0489,-3.0491,-3.0494,-3.0495,0,-3.0234,-3.0219,-3.0254,-3.0285,-3.0314,-3.0337,-3.0355,-3.038,-3.0344,-3.0376,-3.0422,-3.0446,-3.0494,-3.0536,-3.0567,-3.057,-3.0528,-3.0522,-3.0541,-3.0553,-3.0561,-3.0558,-3.029,-3.0516,-3.0514,-3.0512,-3.0511,-3.051,-3.0387,-3.0432,-3.044,-3.0481,-3.0491,-3.051,-3.0551,-3.0542,-3.058,-3.0615,-3.0592,-3.0646,-3.0657,-3.0694,-3.0703,-3.0746,-3.0711,-3.0738,-3.0745,-3.0753,-3.0763,-3.0554,-3.0751,-3.0751,-3.075,-3.075,-3.0749,0,-3.059,-3.0592,-3.063,-3.0657,-3.069,-3.0646,-3.0665,-3.0695,-3.0743,-3.0757,-3.0789,-3.0842,-3.0883,-3.0875,-3.0912,-3.0948,-3.0929,-3.0959,-3.0956,-3.0957,-3.0793,-3.0772,-3.0973,-3.0973,-3.0973,-3.0973,-3.0973,-3.0973,-3.0699,-3.0774,-3.076,-3.084,-3.0842,-3.0894,-3.0908,-3.0926,-3.0937,-3.0998,-3.1032,-3.1026,-3.1032,-3.1069,-3.1105,-3.1102,-3.1118,-3.1155,-3.1145,-3.0991,-3.0969,-3.0948,-3.0928,-3.1159,-3.1159,-3.1305,-3.1307,-3.1308]},{"header":{"parameterUnit":"m.s-1","parameterCategory":1,"la1":30.2991,"la2":30.254,"lo1":-89.0895,"lo2":-89.0444,"dy":0.0017,"dx":0.0017,"nx":28,"ny":28,"refTime":"2023-09-28T09:00:00:Z","depth":0,"parameterNumber":3,"parameterNumberName":"V-component_of_WINDS"},"data":[0,0,0,0,0,0,0,0,0,0,0,0,0,0,0,0,0,0,0,0,0,0,0,0,0,0,0,0,0,0,0,0,0,0,0,0,0,0,0,0,0,0,0,0,0,0,0,0,0,0,0,0,0,0,0,0,0,0,2.6035,2.6036,0,2.6076,2.6077,2.6077,2.6117,2.6118,2.6118,2.6119,2.6157,2.6157,2.6158,0,0,0,0,0,0,0,0,0,0,0,0,0,2.5988,2.5988,2.6035,2.6036,2.6036,2.6076,2.6077,2.6077,2.6117,2.6118,2.6118,2.6119,2.6157,2.6157,2.6158,0,0,0,0,0,0,0,0,0,0,0,0,0,2.6016,2.5989,2.6035,2.6061,2.6064,2.6076,2.6077,2.6078,2.6117,2.6118,2.6118,2.6119,2.6157,2.6157,2.6158,2.6147,0,0,2.6161,2.6161,0,0,0,0,0,0,0,0,2.6015,2.6018,2.6057,2.6059,2.6062,2.6093,2.6074,2.6101,2.6117,2.6097,2.6119,2.612,2.6135,2.6137,2.6143,2.6149,2.6151,2.6161,2.6161,2.6161,2.6162,0,0,0,0,0,0,0,2.6013,2.6016,2.6051,2.6057,2.606,2.6069,2.6074,2.608,2.611,2.6098,2.6101,2.6106,2.6136,2.6142,2.6144,2.6151,2.6161,2.6161,2.6162,2.6162,2.6151,2.615,0,0,0,0,0,0,2.6007,2.6015,2.605,2.6053,2.604,2.607,2.6075,2.6082,2.6111,2.6116,2.6105,2.6108,2.6141,2.6143,2.6146,2.6135,2.6161,2.6162,2.6163,2.6152,2.6151,2.615,0,0,0,0,0,0,2.6006,2.601,2.6048,2.6034,2.604,2.607,2.6077,2.6082,2.6088,2.6116,2.6121,2.6106,2.6141,2.6145,2.6147,2.6137,2.6163,2.6163,2.6153,2.6151,2.615,2.6113,0,0,0,0,0,0,2.6004,2.6009,2.6006,2.6034,2.6041,2.605,2.6076,2.6083,2.609,2.6094,2.6118,2.6123,2.6142,2.6146,2.6148,2.6138,2.6164,2.6154,2.6152,2.6151,2.6115,2.6111,2.6107,0,0,0,0,0,2.6003,2.5993,2.6006,2.601,2.6037,2.6049,2.6053,2.6076,2.6089,2.6086,2.6104,2.6122,2.6138,2.6146,2.6148,2.6139,2.6154,2.6153,2.6151,2.6117,2.6112,2.6107,0,0,0,0,0,0,2.5961,2.5997,2.6012,2.6011,2.6027,2.6056,2.6052,2.607,2.6081,2.6084,2.6112,2.6117,2.6116,2.6128,2.6136,2.613,2.6149,2.6147,2.6122,2.6117,2.6113,2.6109,2.6165,0,0,0,0,0,2.5952,2.596,2.599,2.5987,2.5994,2.6022,2.6028,2.6045,2.6062,2.6068,2.6086,2.6101,2.611,2.6114,2.6124,2.6118,2.6123,2.6113,2.6109,2.6105,2.6103,2.6101,2.6096,2.6144,2.6144,2.6144,0,0,2.5933,2.5954,2.5956,2.5979,2.5993,2.5999,2.6027,2.6032,2.6037,2.6069,2.6072,2.6086,2.6104,2.6103,2.6103,2.6112,2.6092,2.6103,2.61,2.61,2.6098,2.6094,2.609,2.6143,2.6143,2.6143,0,0,2.5901,2.5918,2.5917,2.5932,2.5954,2.5972,2.5972,2.5999,2.6009,2.6014,2.6038,2.6044,2.6058,2.607,2.6078,2.6053,2.6069,2.6055,2.6032,2.6029,2.6026,2.6022,2.6012,2.6009,2.6053,2.6053,2.6053,0,2.5874,2.5886,2.5914,2.5918,2.5927,2.5959,2.5957,2.5969,2.5992,2.5997,2.6009,2.6028,2.6042,2.6044,2.6038,2.6044,2.6043,2.6051,2.6024,2.6021,2.6019,2.6009,2.6006,2.6051,2.6051,2.6051,2.6052,0,2.5851,2.5859,2.5855,2.5878,2.5887,2.5888,2.5916,2.5921,2.5939,2.5956,2.596,2.5979,2.5992,2.5995,2.601,2.5998,2.6004,2.6019,2.6038,2.6011,2.6003,2.6,2.6048,2.6049,2.6049,2.605,0,0,2.5792,2.5833,2.5831,2.5842,2.587,2.5875,2.5878,2.5893,2.5897,2.5912,2.5914,2.5927,2.5942,2.5951,2.5969,2.5966,2.5944,2.5982,2.5983,2.5974,2.5931,2.5918,2.5913,2.5957,2.5956,2.5956,2.5929,0,2.5764,2.5772,2.5798,2.5797,2.5805,2.5836,2.5838,2.5854,2.5871,2.5878,2.5897,2.5904,2.5924,2.593,2.5929,2.5947,2.5936,2.595,2.5957,2.5957,2.595,2.5909,2.5896,2.5869,2.5926,2.5926,2.5925,0,2.5731,2.5747,2.5747,2.5775,2.5779,2.5781,2.5797,2.5805,2.5824,2.5836,2.5847,2.5868,2.5871,2.589,2.5895,2.5904,2.5909,2.5919,2.5918,2.5918,2.5938,2.5907,2.5862,2.5857,2.5921,2.5921,2.5921,0,2.5687,2.5707,2.5711,2.572,2.5753,2.5753,2.5767,2.5787,2.5795,2.5809,2.5814,2.5828,2.5835,2.5844,2.5868,2.588,2.587,2.5891,2.5879,2.5878,2.5873,2.5873,2.5827,2.5879,2.5879,2.5879,2.5879,0,2.5652,2.565,2.5691,2.5693,2.5693,2.5723,2.5721,2.5738,2.5756,2.5761,2.5788,2.5792,2.5823,2.583,2.5849,2.5849,2.5853,2.5862,2.5866,2.5858,2.5857,2.586,2.5862,2.5878,2.5879,2.5879,2.5879,0,2.5601,2.5629,2.5634,2.5666,2.5674,2.5672,2.5699,2.5701,2.572,2.5726,2.5729,2.5758,2.5768,2.5793,2.5808,2.5821,2.5816,2.5826,2.581,2.5812,2.5798,2.5799,2.5751,2.5746,2.5803,2.5803,2.5802,0,2.5576,2.5576,2.5608,2.5615,2.5627,2.5637,2.5645,2.5675,2.5683,2.5706,2.5705,2.5717,2.5729,2.5742,2.5764,2.5776,2.5786,2.5768,2.5787,2.5779,2.5784,2.5783,2.5782,2.5763,2.5763,2.5762,2.5761,0,2.5528,2.5542,2.5554,2.5571,2.5581,2.5595,2.5611,2.5614,2.5648,2.5655,2.5666,2.5675,2.5692,2.5703,2.5719,2.5732,2.5752,2.5756,2.5753,2.5744,2.5734,2.5738,2.5797,2.5756,2.5757,2.5757,2.5757,2.5758,2.5488,2.549,2.5514,2.5526,2.5542,2.5556,2.556,2.5581,2.5591,2.5608,2.5626,2.5635,2.5655,2.5678,2.569,2.5697,2.5707,2.5704,2.5703,2.5701,2.5697,2.5735,2.57,2.57,2.57,2.57,2.5701,0,2.5441,2.5458,2.547,2.5492,2.5502,2.5522,2.5541,2.5547,2.5555,2.5573,2.5585,2.5597,2.5609,2.5632,2.5646,2.5647,2.5656,2.5649,2.5648,2.5651,2.5688,2.5688,2.5641,2.5641,2.5641,2.5641,2.5641,2.5641,2.5417,2.5421,2.5438,2.545,2.5467,2.5478,2.5486,2.55,2.5514,2.5528,2.5538,2.5554,2.5574,2.5589,2.5601,2.5607,2.561,2.56,2.5609,2.5642,2.5648,2.5653,2.5654,2.5601,2.5601,2.5571,2.5571,2.5571]}]]